CZ-6A DEB, 54943

Orbit data source: Space-Track

CZ-6A DEB, 54943 is space debris in SSO originally from a launch on Fri, 11 Nov 2022 UTC launched from the Taiyaun Space Center, China (TSC). Debris objects in space refer to the collection of defunct objects orbiting the Earth. Examples of debris include non-operational satellites, rocket bodies, and fragments generated from explosions, collisions, or faulty payload assembly.

Loading next visibility...
Identifier
54943, 2022-151SG
Orbit
SSO
Country
Flag of CNCN / PRC
Related business
Manufacturer
SAST
Mission
Spacecraft
Bus & Motor
Unknown
Mass
Unknown
Launch date (UTC)
2022-11-11 (3 years ago)
Launch vehicle
Unknown
Launch site
Taiyaun Space Center, China (TSC)
Object type
Payload
Rocket body
Debris
Shape & HBR
Unknown shape, 0.1 m
Radar Cross Section
Small (<0.1 m²)

Expand to show TLE details & history
Last TLE update: 11 hours ago

TLE from 11 hours ago
0 CZ-6A DEB
1 54943U 22151SG  25352.28960300  .00003264  00000-0  13802-2 0  9992
2 54943  98.8039   8.3344 0020876  77.6667 282.6848 14.26111830160055
Epoch: 2025-12-18T06:57Z
TLE epoch observation values (Epoch: 2025-12-18T06:57:01.699Z)
Latitude
-0.00001°
Longitude
176.93008°
Altitude
804.413 km
Speed
7.453 km/s
True Right ascension
00h 33m 20s
True Declination
0° 00' 00"
Sunlit
Object was in daylight at epoch
Visualization orbit readout
Latitude
Unknown
Longitude
Unknown
Altitude
Unknown
Speed
Unknown
Apparent Right ascension
Unknown
Apparent Declination
Unknown
Sunlit
N/A
Visualization observer readout
Local Sidereal Time
16:18:15
Azimuth
Unknown
Elevation
Unknown
Doppler factor
Unknown
Orbital elements
Apogee altitude
816.901 km
Perigee altitude
786.923 km
Semi-major axis
7,180.049 km
Eccentricity
0.00209
Inclination
98.8039°
RAAN
8.3344°
Arg. of periapsis
77.6667°
True anomaly
282.45128°
Mean anomaly
282.6848°
Eccentric anomaly
282.56806°
Mean motion
3.5674 °/min
Orbital period
100.91 mins
BSTAR
0.0013802
Loading maneuver chart data...
Computing Atmospheric mass density...
Loading historical data...
Loading historical data...
Loading historical data...
Loading historical data...
Loading historical data...
Loading historical data...
Loading historical data...

Documentation

Showing up to 5 results
|